Wind_Speed
5 5 4 3 3 2 1 2 3 4 3 3 4 5 5 5 6 5 6 6 6 6 6 6 5 5 5 5 4 5 5 6 5 6 6 6 7 8 7 6 6 6 5
5 5 4 3 3 3 2 2 3 3 3 4 4 6 6 6 5 5 5 5 5 5 6 6 5 5 5 5 5 5 5 6 6 6 6 6 6 7 6 6 5 5 4
5 5 5 4 4 3 3 3 2 3 3 4 4 5 5 4 4 4 4 3 4 4 4 5 5 6 5 5 5 6 6 5 5 5 5 5 6 6 6 6 6 5 5
5 5 5 5 4 3 2 2 2 2 3 3 3 3 4 3 3 3 3 3 3 4 4 4 5 5 6 6 6 5 6 5 5 5 4 4 4 5 6 6 6 6 5
5 5 5 5 5 4 2 2 3 3 3 3 2 2 3 3 2 2 2 3 4 4 5 5 6 6 5 5 5 4 4 5 4 5 4 4 4 4 4 5 6 6 6
6 5 5 6 5 6 5 4 4 3 3 2 2 1 1 2 2 2 2 3 4 5 6 5 5 6 5 5 6 5 4 5 5 5 5 4 4 4 4 4 5 5 5
6 6 6 6 6 7 7 7 5 4 3 2 2 1 1 1 1 2 3 3 3 3 4 4 4 5 5 5 6 5 5 6 6 5 4 4 4 5 5 5 5 6 6
7 7 7 6 6 6 6 5 4 4 3 2 2 1 1 0 1 2 3 2 2 1 2 2 3 4 4 4 4 4 4 5 6 6 5 5 5 5 6 6 5 5 6
7 7 7 7 6 6 6 5 4 2 2 2 1 1 0 1 2 2 3 3 1 1 2 2 4 4 4 3 3 3 3 4 5 6 6 5 5 5 6 6 7 6 6
8 7 7 7 6 6 5 5 5 3 2 1 1 1 1 2 2 2 2 2 1 1 2 3 4 3 3 2 3 3 3 4 4 5 5 6 6 6 6 6 6 5 6
8 8 7 7 7 6 5 5 4 4 3 2 2 2 2 2 2 2 2 2 1 2 3 4 4 3 3 3 3 3 4 4 5 5 4 5 5 5 6 6 6 6 6
8 7 7 7 7 7 6 5 5 4 4 4 3 3 3 3 3 3 2 2 2 2 2 3 3 3 3 3 2 3 3 4 4 5 4 5 6 6 6 6 6 6 6
8 8 7 7 7 7 7 6 6 5 4 4 4 4 4 5 5 3 2 1 1 1 1 2 2 2 3 3 3 3 4 4 5 4 4 5 6 7 7 7 7 7 7
8 8 8 8 8 7 7 7 6 7 6 5 5 5 5 6 6 5 3 2 2 2 2 3 3 3 3 3 3 3 4 5 5 5 5 6 6 7 8 8 8 8 8
8 8 8 8 8 8 7 7 7 6 6 6 6 6 6 6 6 5 4 4 3 2 3 3 3 4 4 4 4 5 5 5 5 5 5 5 6 7 7 8 9 9 8
8 8 8 9 9 9 8 7 7 7 7 7 6 7 7 7 6 5 4 4 4 4 3 3 4 5 5 6 6 6 6 6 6 6 6 6 6 7 7 7 8 8 9
8 8 8 9 9 9 9 9 7 7 7 6 7 7 7 8 7 6 5 5 5 4 4 4 5 5 6 6 6 6 6 7 7 7 7 6 7 7 7 8 8 9 9
8 8 9 9 9 9 9 8 8 8 7 6 6 7 8 8 7 7 6 7 7 7 6 6 6 6 7 7 7 7 8 7 8 8 8 7 7 7 7 8 9 9 10
9 9 9 9 9 9 9 8 9 9 8 7 7 7 7 8 8 8 8 9 9 9 8 7 7 8 8 8 8 8 9 9 9 9 10 9 8 8 9 9 9 10 10
9 9 9 9 9 9 8 9 9 9 8 7 7 8 8 8 8 9 9 9 9 9 9 9 9 9 9 9 9 9 9 10 10 10 10 11 11 11 11 11 11 11 11
9 10 10 10 9 8 9 9 10 10 9 8 8 8 9 9 10 10 10 10 10 10 10 9 10 10 9 10 10 10 10 11 11 11 11 12 12 13 13 13 13 13 13
10 10 10 10 10 9 9 9 10 10 10 10 9 9 10 10 11 11 11 11 11 11 11 11 10 11 11 11 11 11 12 12 12 13 13 13 13 13 14 14 14 15 14
10 11 11 10 10 10 10 10 11 11 11 11 11 11 12 12 12 13 12 12 12 12 13 13 12 12 12 13 13 13 13 13 13 13 14 14 15 15 15 16 16 16 17
11 11 10 10 11 11 11 11 11 11 11 12 12 13 13 13 14 14 13 13 13 13 13 13 14 14 14 14 15 15 15 14 14 15 15 15 15 15 16 17 17 17 17
11 11 11 11 11 11 12 12 12 12 12 13 13 14 14 14 15 15 15 15 14 15 15 15 15 15 16 16 16 16 16 16 16 17 17 17 17 17 17 18 18 18 19
12 11 12 12 12 12 13 13 13 13 13 14 14 15 15 15 15 16 17 16 16 16 16 16 16 16 17 17 17 18 18 18 18 18 18 18 19 18 19 20 20 20 20
Wind_Direction
2 359 359 4 24 42 61 101 132 127 125 134 144 156 156 154 153 159 172 178 181 188 194 197 202 207 212 218 221 219 220 222 215 216 220 220 220 220 220 217 219 230 227
12 12 12 20 48 61 74 101 126 124 119 125 136 148 148 151 154 158 164 174 185 192 199 203 210 213 216 218 220 220 222 226 224 224 224 225 227 226 222 211 221 227 227
33 38 37 42 54 73 79 91 120 121 123 130 134 148 151 156 167 175 184 189 192 196 204 209 210 220 216 220 219 224 222 228 225 219 217 224 227 227 224 222 226 231 236
40 46 40 39 42 62 80 115 129 133 131 134 124 144 155 162 173 189 203 211 222 231 225 216 214 218 219 217 213 218 219 224 218 219 218 226 226 226 221 222 227 232 237
45 47 48 41 40 43 47 145 150 141 128 125 111 125 163 173 187 213 230 240 249 248 245 233 229 222 226 216 211 211 218 216 214 219 219 222 227 234 232 229 232 229 234
44 47 51 42 43 47 55 110 133 132 124 113 108 112 136 175 196 237 263 268 270 259 248 238 237 227 226 216 213 221 219 220 215 224 226 222 229 239 245 244 237 230 223
46 50 49 46 44 52 68 93 118 120 118 112 129 121 122 145 229 271 295 289 285 264 246 236 230 223 219 222 225 224 218 220 224 229 233 234 241 249 255 260 246 235 227
48 50 48 48 48 53 62 75 92 111 120 115 126 122 119 67 341 339 331 327 288 244 229 221 209 208 211 212 213 218 215 229 234 234 240 247 254 259 261 261 252 241 228
45 48 47 47 50 54 54 59 60 77 93 99 94 100 15 344 337 333 343 354 334 247 227 212 206 203 205 205 211 219 228 238 239 243 241 252 254 257 255 250 248 242 236
42 45 46 46 49 50 49 49 51 50 44 35 16 359 334 331 330 327 329 348 317 255 230 212 203 202 202 209 211 221 232 240 241 251 250 254 255 262 250 244 248 247 242
41 42 43 47 45 44 43 38 33 25 10 355 345 338 326 326 326 321 315 320 287 241 226 216 208 206 220 223 233 240 239 242 244 246 245 257 260 261 250 243 247 249 243
29 34 35 37 37 36 34 27 21 14 3 352 341 336 328 328 320 317 321 310 287 254 234 227 212 216 220 222 248 245 236 247 255 251 251 261 267 267 254 248 253 248 249
21 23 25 28 25 26 23 20 22 19 9 358 346 344 340 331 329 319 336 335 340 276 257 246 213 222 226 223 239 256 254 259 261 267 262 266 266 265 260 258 253 249 254
21 21 18 16 18 15 14 17 17 14 10 3 360 358 351 346 340 332 326 330 320 290 274 268 268 254 243 233 244 262 268 266 267 268 272 271 267 263 261 261 257 253 254
17 17 15 14 14 9 5 9 7 5 3 0 2 2 354 347 345 333 320 313 301 288 285 279 278 272 264 264 258 263 267 268 269 267 273 273 271 266 263 260 259 259 258
14 15 12 10 8 5 4 5 2 1 360 358 353 354 353 348 343 330 319 328 313 292 293 288 282 274 274 274 268 265 263 267 272 267 272 270 266 264 263 265 264 264 261
13 10 6 5 3 360 359 359 359 357 354 352 352 350 349 354 357 347 330 324 317 313 301 292 288 287 288 279 274 271 269 269 273 274 269 266 263 263 267 269 269 264 262
6 4 0 0 358 355 354 356 354 349 351 349 351 350 349 348 349 342 332 325 322 317 308 299 294 289 285 281 276 274 274 273 275 272 269 270 268 270 272 274 274 272 269
358 355 353 354 354 352 352 349 348 346 341 340 349 349 344 341 339 333 328 323 319 315 310 302 297 290 285 281 275 273 275 275 274 269 268 269 270 273 274 275 276 275 273
354 353 350 348 347 348 349 348 347 345 343 336 340 346 347 343 335 327 323 321 317 313 309 302 297 292 288 284 280 278 278 276 273 271 273 274 273 272 274 275 277 277 275
347 345 343 341 338 338 342 344 342 346 345 341 339 344 345 340 333 327 326 323 318 310 304 298 292 292 291 289 285 282 278 278 277 277 277 276 275 276 275 276 277 278 277
340 341 341 339 336 332 335 339 337 338 339 336 334 336 336 333 329 326 323 320 316 310 305 296 291 290 290 290 288 286 282 280 279 280 279 280 280 279 278 277 279 279 279
336 337 337 335 332 332 333 333 331 331 328 327 326 326 327 327 326 324 321 320 318 313 307 296 290 288 288 290 290 288 285 280 278 279 280 280 281 281 281 279 278 280 278
334 334 334 333 331 329 329 327 326 325 322 320 319 320 321 322 320 320 319 319 318 314 310 301 294 292 290 290 291 290 287 284 282 280 279 279 278 281 282 284 280 280 278
330 331 332 330 329 329 328 327 325 324 322 320 318 316 316 318 318 317 316 317 316 315 310 304 297 294 292 291 290 290 289 287 284 282 281 280 279 280 281 283 281 279 279
323 325 325 326 326 325 326 327 326 325 324 323 320 318 316 317 317 316 315 313 313 312 308 305 301 297 293 291 290 289 287 286 284 282 281 280 280 279 281 281 281 278 277
Height
5868 5866 5865 5865 5865 5865 5864 5864 5864 5865 5865 5865 5865 5866 5867 5868 5869 5869 5870 5871 5872 5873 5873 5874 5875 5876 5876 5877 5878 5879 5880 5881 5882 5883 5884 5885 5886 5887 5887 5888 5889 5891 5891
5868 5867 5866 5866 5865 5865 5865 5865 5865 5866 5866 5866 5866 5867 5868 5869 5869 5870 5870 5871 5871 5872 5873 5874 5874 5875 5876 5877 5878 5879 5880 5881 5882 5883 5884 5885 5886 5887 5887 5888 5889 5890 5891
5869 5868 5867 5866 5866 5865 5865 5865 5866 5866 5867 5867 5867 5868 5869 5869 5870 5870 5871 5871 5871 5872 5873 5874 5874 5875 5876 5877 5878 5878 5879 5881 5882 5883 5884 5884 5885 5886 5887 5888 5888 5889 5890
5870 5869 5868 5867 5866 5866 5865 5865 5866 5867 5867 5868 5868 5869 5869 5870 5870 5870 5871 5871 5871 5871 5872 5873 5873 5874 5875 5876 5877 5878 5879 5880 5881 5882 5883 5884 5885 5885 5886 5887 5888 5888 5889
5871 5870 5869 5868 5867 5865 5863 5862 5865 5867 5868 5869 5869 5870 5870 5870 5870 5870 5871 5871 5870 5870 5870 5870 5871 5873 5874 5875 5877 5878 5879 5880 5881 5882 5883 5884 5885 5885 5886 5887 5887 5888 5888
5872 5871 5870 5869 5868 5865 5860 5858 5863 5867 5868 5869 5870 5870 5870 5870 5871 5871 5870 5869 5868 5867 5867 5868 5869 5871 5873 5875 5876 5877 5879 5879 5880 5881 5882 5883 5884 5885 5886 5886 5886 5887 5888
5873 5872 5871 5870 5869 5867 5865 5864 5866 5868 5869 5870 5870 5871 5871 5871 5871 5871 5869 5867 5866 5865 5865 5866 5868 5870 5873 5874 5875 5877 5878 5879 5880 5881 5881 5882 5883 5884 5885 5885 5886 5887 5887
5874 5873 5872 5871 5871 5870 5869 5869 5869 5870 5870 5870 5871 5871 5871 5871 5871 5870 5869 5867 5866 5865 5866 5866 5868 5870 5872 5874 5875 5876 5877 5878 5879 5880 5881 5882 5883 5883 5884 5884 5885 5886 5887
5875 5874 5873 5873 5872 5872 5871 5871 5871 5871 5870 5871 5872 5872 5872 5872 5871 5871 5869 5867 5866 5865 5866 5867 5868 5870 5872 5874 5875 5876 5877 5878 5879 5880 5880 5881 5882 5882 5883 5883 5884 5885 5886
5877 5876 5875 5874 5874 5873 5873 5873 5872 5872 5872 5872 5872 5872 5872 5872 5872 5871 5870 5868 5866 5866 5866 5867 5869 5871 5872 5874 5875 5876 5876 5877 5878 5879 5880 5880 5881 5881 5882 5882 5883 5884 5885
5878 5877 5876 5876 5875 5874 5874 5874 5874 5874 5873 5873 5873 5873 5873 5873 5872 5872 5871 5869 5868 5867 5867 5868 5870 5871 5872 5873 5875 5875 5876 5877 5877 5878 5879 5879 5879 5880 5881 5881 5882 5883 5883
5880 5879 5878 5877 5876 5876 5875 5875 5875 5875 5874 5874 5874 5874 5873 5873 5872 5871 5871 5870 5869 5869 5869 5869 5870 5871 5872 5873 5874 5875 5875 5876 5876 5876 5878 5878 5879 5879 5879 5880 5881 5882 5882
5881 5880 5879 5878 5877 5877 5876 5876 5876 5875 5875 5875 5874 5874 5873 5873 5872 5871 5871 5870 5870 5870 5870 5869 5870 5871 5872 5873 5874 5874 5875 5875 5875 5875 5876 5877 5877 5877 5878 5879 5879 5880 5881
5882 5881 5881 5880 5879 5878 5877 5877 5876 5876 5876 5875 5874 5874 5873 5873 5872 5872 5871 5871 5870 5870 5870 5870 5870 5871 5871 5871 5872 5873 5874 5874 5875 5875 5875 5875 5875 5876 5876 5877 5878 5879 5879
5883 5882 5882 5881 5880 5879 5878 5877 5877 5876 5876 5875 5875 5874 5873 5873 5872 5871 5871 5871 5870 5870 5870 5870 5870 5870 5871 5871 5871 5872 5873 5873 5874 5873 5874 5874 5874 5874 5875 5876 5876 5877 5878
5884 5883 5882 5881 5880 5879 5879 5878 5877 5877 5876 5875 5874 5874 5873 5872 5871 5871 5871 5871 5870 5870 5870 5870 5870 5870 5870 5870 5870 5871 5871 5872 5872 5872 5872 5872 5873 5873 5873 5874 5874 5875 5876
5885 5884 5883 5882 5881 5880 5879 5878 5877 5877 5876 5875 5874 5874 5873 5872 5871 5871 5871 5871 5870 5870 5870 5869 5869 5869 5869 5869 5869 5870 5870 5870 5870 5870 5870 5870 5871 5871 5872 5872 5872 5873 5874
5886 5885 5884 5883 5882 5881 5879 5878 5878 5877 5876 5875 5874 5873 5872 5872 5871 5871 5870 5870 5870 5869 5869 5868 5868 5868 5868 5868 5868 5868 5868 5868 5868 5869 5869 5869 5869 5870 5870 5870 5870 5871 5871
5887 5885 5884 5883 5882 5881 5880 5879 5878 5877 5876 5875 5874 5873 5872 5871 5871 5870 5870 5869 5868 5868 5867 5867 5867 5867 5866 5866 5866 5866 5866 5866 5867 5867 5867 5868 5868 5868 5868 5868 5868 5869 5869
5887 5886 5885 5884 5882 5881 5880 5879 5878 5877 5875 5874 5874 5873 5872 5871 5870 5870 5869 5868 5867 5867 5866 5865 5865 5865 5865 5864 5864 5864 5864 5864 5864 5865 5865 5865 5865 5865 5865 5866 5865 5866 5866
5887 5886 5885 5883 5882 5881 5880 5879 5877 5876 5875 5874 5873 5872 5871 5870 5870 5869 5868 5867 5866 5865 5864 5864 5863 5863 5863 5862 5862 5862 5862 5862 5862 5862 5862 5862 5862 5862 5862 5863 5862 5862 5862
5887 5886 5884 5883 5882 5881 5879 5878 5877 5876 5875 5873 5872 5871 5871 5870 5868 5867 5866 5865 5864 5862 5861 5861 5861 5860 5860 5860 5860 5859 5859 5860 5859 5858 5858 5859 5858 5858 5858 5859 5859 5859 5858
5886 5885 5884 5882 5881 5880 5879 5878 5876 5875 5874 5873 5872 5871 5869 5868 5867 5865 5864 5863 5862 5860 5859 5858 5858 5858 5857 5857 5856 5856 5856 5856 5855 5855 5855 5855 5855 5855 5855 5855 5854 5854 5855
5885 5884 5883 5882 5881 5879 5878 5877 5875 5874 5873 5872 5870 5869 5868 5867 5865 5863 5862 5861 5859 5858 5856 5855 5855 5854 5854 5854 5853 5852 5852 5852 5852 5851 5851 5850 5850 5850 5850 5850 5850 5851 5850
5884 5883 5882 5881 5880 5878 5877 5875 5874 5873 5872 5870 5869 5867 5866 5864 5863 5861 5860 5858 5857 5855 5854 5852 5851 5851 5850 5850 5850 5849 5848 5848 5847 5847 5846 5846 5846 5846 5846 5846 5845 5845 5845
5883 5882 5881 5880 5878 5877 5875 5874 5872 5871 5870 5868 5867 5865 5864 5862 5860 5859 5857 5855 5854 5852 5851 5849 5848 5847 5847 5846 5845 5844 5844 5843 5842 5842 5842 5841 5841 5841 5841 5840 5840 5840 5840